Location: Unspecified
(0.0000°N, 0.0000°E)
Time: 16:40:25
(UTC+01:00)

ARIANE 5 R/B - Visible Passes

Search period start: 27 March 2015 00:00
Search period end: 06 April 2015 01:00
Orbit: 554 x 35575 km, 4.7° (Epoch: 24 March)

Date Brightness Start Highest point End Pass type
(mag) Time Alt. Az. Time Alt. Az. Time Alt. Az.
28 Mar 3.5 05:54:57 27° WNW 05:56:43 52° N 06:05:03 10° E visible
29 Mar 6.9 15:03:46 10° W 00:42:49 58° W 00:42:49 58° W visible
30 Mar 7.0 11:56:32 10° W 21:17:06 85° S 21:50:43 33° E visible
01 Apr 4.1 05:59:52 34° NE 05:59:52 34° NE 06:03:33 10° ENE visible
01 Apr 8.0 17:28:42 10° W 02:40:19 11° W 02:40:19 11° W visible
02 Apr 6.5 14:03:05 10° W 23:48:13 86° WSW 23:48:13 86° WSW visible
03 Apr 6.6 10:58:31 10° W 11:13:07 88° N 20:56:07 14° E visible
